Date String (YYYY-MM-DD hh:mm:ss) UTC,Instrument flags,absolute air pressure of the measurement (hPa),sample flow rate (lpm),inlet stack bypass flow (lpm),air temperature of the measurement (°C),ambient temperature measured by the external sensor (°C),aerosol sample conditioner tube jacket temperature (°C),OPC LED temperature (°C),internal box temperature (°C),relative humidity of the measurement (%),span deviation,mass concentration of particles derived from Lorenz-Mie calculation of OPC scattering (μg/m³),mass concentration of particles derived from Lorenz-Mie calculation of OPC scattering (μg/m³),mass concentration of particles derived from Lorenz-Mie calculation of OPC scattering (μg/m³)
DateTimeUTC,F1_M11,P_M11,Q1_M11,Q2_M11,T1_M11,T2_M11,T3_M11,T4_M11,T5_M11,U1_M11,ZSPAN_M11,X0_M11,X2_M11,X1_M11
2023-07-13 17:00:00,SystemResetWarning,0831.6,5.00,000.00,028.7,025.3,000.0,036.9,030.2,33.8,0000.0,0009.19,0004.67,0004.12
2023-07-13 17:01:00,SystemResetWarning,0831.6,5.02,000.00,028.6,025.0,000.0,036.8,030.0,34.2,0000.0,0009.21,0004.70,0004.13
2023-07-13 17:02:00,SystemResetWarning,0831.6,4.99,000.00,028.6,025.3,000.0,036.9,030.0,33.5,0000.0,0009.36,0004.77,0004.15
2023-07-13 17:03:00,SystemResetWarning,0831.6,5.00,000.00,028.6,025.8,000.0,036.9,030.0,33.0,0000.0,0009.50,0004.82,0004.18
2023-07-13 17:04:00,SystemResetWarning,0831.7,5.01,000.00,028.6,026.2,000.0,036.9,030.1,33.3,0000.0,0009.90,0004.86,0004.19
2023-07-13 17:05:00,SystemResetWarning,0831.7,5.00,000.00,028.6,026.6,000.0,037.0,030.2,33.1,0000.0,0010.61,0004.88,0004.19
2023-07-13 17:06:00,SystemResetWarning,0831.7,4.99,000.00,028.6,026.9,000.0,037.0,030.3,33.7,0000.0,0011.62,0004.89,0004.19
2023-07-13 17:07:00,SystemResetWarning,0831.7,5.00,000.00,028.7,027.2,000.0,037.0,030.4,34.0,0000.0,0012.03,0004.92,0004.20
2023-07-13 17:08:00,SystemResetWarning,0831.7,4.99,000.00,028.7,027.3,000.0,037.0,030.4,33.7,0000.0,0011.92,0004.95,0004.21
2023-07-13 17:09:00,SystemResetWarning,0831.7,4.98,000.00,028.7,026.0,000.0,036.9,030.3,34.3,0000.0,0012.06,0005.03,0004.24
2023-07-13 17:10:00,SystemResetWarning,0831.7,5.04,000.00,028.7,025.0,000.0,036.8,030.1,34.8,0000.0,0011.99,0005.07,0004.27
2023-07-13 17:11:00,SystemResetWarning,0831.6,4.97,000.00,028.7,025.0,000.0,036.8,030.0,34.5,0000.0,0011.95,0005.10,0004.28
2023-07-13 17:12:00,SystemResetWarning,0831.6,5.00,000.00,028.7,025.4,000.0,036.9,030.0,35.3,0000.0,0011.97,0005.08,0004.29
2023-07-13 17:13:00,SystemResetWarning,0831.6,5.01,000.00,028.8,025.8,000.0,036.9,030.1,35.8,0000.0,0011.88,0005.06,0004.31
2023-07-13 17:14:00,SystemResetWarning,0831.6,5.00,000.00,029.2,026.2,000.0,037.0,030.4,35.4,0000.0,0012.32,0005.01,0004.31
2023-07-13 17:15:00,SystemResetWarning,0831.7,4.99,000.00,029.5,026.6,000.0,037.0,030.6,33.9,0000.0,0013.77,0004.96,0004.32
2023-07-13 17:16:00,SystemResetWarning,0831.7,4.99,000.00,029.7,027.0,000.0,037.1,030.6,31.3,0000.0,0014.07,0005.01,0004.34
2023-07-13 17:17:00,SystemResetWarning,0831.7,5.01,000.00,029.9,027.3,000.0,037.2,030.7,28.6,0000.0,0014.53,0005.04,0004.37
2023-07-13 17:18:00,SystemResetWarning,0831.7,5.00,000.00,030.0,026.8,000.0,037.3,030.7,31.0,0000.0,0016.03,0005.05,0004.39
2023-07-13 17:19:00,SystemResetWarning,0831.7,4.98,000.00,030.0,025.3,000.0,037.3,030.4,31.6,0000.0,0017.02,0005.07,0004.40
2023-07-13 17:20:00,SystemResetWarning,0831.7,5.01,000.00,030.0,024.8,000.0,037.3,030.3,29.7,0000.0,0017.50,0005.08,0004.40
2023-07-13 17:21:00,SystemResetWarning,0831.7,5.01,000.00,029.9,025.1,000.0,037.3,030.1,30.0,0000.0,0017.67,0005.11,0004.40
2023-07-13 17:22:00,SystemResetWarning,0831.7,5.00,000.00,029.9,025.5,000.0,037.5,030.2,31.2,0000.0,0017.39,0005.11,0004.40
2023-07-13 17:23:00,SystemResetWarning,0831.7,5.00,000.00,029.8,026.0,000.0,037.6,030.3,31.6,0000.0,0018.21,0005.13,0004.39
2023-07-13 17:24:00,SystemResetWarning,0831.7,5.00,000.00,029.9,026.4,000.0,037.6,030.4,31.8,0000.0,0018.46,0005.15,0004.38
2023-07-13 17:25:00,SystemResetWarning,0831.7,4.99,000.00,029.9,026.8,000.0,037.7,030.5,31.4,0000.0,0018.38,0005.19,0004.35
2023-07-13 17:26:00,SystemResetWarning,0831.7,5.00,000.00,029.9,027.1,000.0,037.7,030.6,31.0,0000.0,0017.19,0005.20,0004.32
2023-07-13 17:27:00,SystemResetWarning,0831.7,4.99,000.00,029.9,026.8,000.0,037.7,030.7,30.9,0000.0,0016.21,0005.22,0004.30
2023-07-13 17:28:00,SystemResetWarning,0831.7,5.00,000.00,029.9,025.4,000.0,037.6,030.4,31.2,0000.0,0015.10,0005.21,0004.28
2023-07-13 17:29:00,SystemResetWarning,0831.7,5.00,000.00,029.8,024.7,000.0,037.5,030.3,30.1,0000.0,0013.05,0005.21,0004.28
2023-07-13 17:30:00,SystemResetWarning,0831.6,5.01,000.00,029.7,025.0,000.0,037.6,030.2,29.3,0000.0,0011.99,0005.18,0004.27
2023-07-13 17:31:00,SystemResetWarning,0831.7,5.01,000.00,029.6,025.4,000.0,037.6,030.2,29.2,0000.0,0011.66,0005.15,0004.27
2023-07-13 17:32:00,SystemResetWarning,0831.7,5.00,000.00,029.6,025.9,000.0,037.7,030.3,28.4,0000.0,0011.73,0005.16,0004.28
2023-07-13 17:33:00,SystemResetWarning,0831.9,4.99,000.00,029.6,026.3,000.0,037.7,030.4,27.4,0000.0,0011.71,0005.12,0004.29
2023-07-13 17:34:00,SystemResetWarning,0831.8,4.99,000.00,029.6,026.7,000.0,037.7,030.4,29.7,0000.0,0011.19,0005.13,0004.31
2023-07-13 17:35:00,SystemResetWarning,0832.0,5.00,000.00,029.6,027.0,000.0,037.7,030.5,30.5,0000.0,0011.04,0005.13,0004.33
2023-07-13 17:36:00,SystemResetWarning,0831.9,5.00,000.00,029.6,027.2,000.0,037.7,030.6,29.6,0000.0,0011.20,0005.14,0004.37
2023-07-13 17:37:00,SystemResetWarning,0832.0,4.99,000.00,029.6,026.3,000.0,037.6,030.5,28.4,0000.0,0011.01,0005.18,0004.41
2023-07-13 17:38:00,SystemResetWarning,0831.7,5.01,000.00,029.6,025.0,000.0,037.5,030.3,30.7,0000.0,0011.46,0005.15,0004.43
2023-07-13 17:39:00,SystemResetWarning,0831.7,5.01,000.00,029.5,024.9,000.0,037.5,030.2,30.6,0000.0,0011.46,0005.12,0004.43
2023-07-13 17:40:00,SystemResetWarning,0831.7,5.01,000.00,029.4,025.2,000.0,037.5,030.1,29.5,0000.0,0011.55,0005.10,0004.42
2023-07-13 17:41:00,SystemResetWarning,0831.7,5.00,000.00,029.3,025.6,000.0,037.5,030.2,28.8,0000.0,0011.57,0005.08,0004.42
2023-07-13 17:42:00,SystemResetWarning,0831.7,5.00,000.00,029.3,026.1,000.0,037.6,030.3,28.5,0000.0,0011.89,0005.07,0004.41
2023-07-13 17:43:00,SystemResetWarning,0831.7,4.99,000.00,029.3,026.5,000.0,037.6,030.3,28.9,0000.0,0013.12,0005.06,0004.41
2023-07-13 17:44:00,SystemResetWarning,0831.7,5.00,000.00,029.3,026.9,000.0,037.6,030.4,28.6,0000.0,0013.45,0005.08,0004.39
2023-07-13 17:45:00,SystemResetWarning,0831.7,5.00,000.00,029.4,027.1,000.0,037.6,030.6,27.2,0000.0,0013.79,0005.11,0004.38
2023-07-13 17:46:00,SystemResetWarning,0831.6,4.98,000.00,029.4,026.3,000.0,037.5,030.5,26.5,0000.0,0013.79,0005.12,0004.38
2023-07-13 17:47:00,SystemResetWarning,0831.6,5.00,000.00,029.3,025.0,000.0,037.4,030.2,27.4,0000.0,0013.61,0005.15,0004.37
2023-07-13 17:48:00,SystemResetWarning,0831.6,5.01,000.00,029.2,024.8,000.0,037.3,030.1,28.6,0000.0,0013.83,0005.15,0004.38
2023-07-13 17:49:00,SystemResetWarning,0831.6,5.00,000.00,029.1,025.1,000.0,037.3,030.0,28.8,0000.0,0013.28,0005.16,0004.38
2023-07-13 17:50:00,SystemResetWarning,0831.6,5.00,000.00,029.1,025.5,000.0,037.4,030.1,28.3,0000.0,0014.11,0005.16,0004.40
2023-07-13 17:51:00,SystemResetWarning,0831.6,5.00,000.00,029.1,026.0,000.0,037.4,030.2,28.6,0000.0,0014.28,0005.15,0004.41
2023-07-13 17:52:00,SystemResetWarning,0831.6,5.00,000.00,029.1,026.4,000.0,037.4,030.3,28.3,0000.0,0014.23,0005.18,0004.42
2023-07-13 17:53:00,SystemResetWarning,0831.6,5.00,000.00,029.1,026.8,000.0,037.4,030.4,28.7,0000.0,0013.86,0005.25,0004.42
2023-07-13 17:54:00,SystemResetWarning,0831.5,5.00,000.00,029.1,027.1,000.0,037.4,030.5,27.5,0000.0,0012.44,0005.29,0004.41
2023-07-13 17:55:00,SystemResetWarning,0831.6,4.99,000.00,029.1,026.3,000.0,037.3,030.4,28.7,0000.0,0012.45,0005.32,0004.41
2023-07-13 17:56:00,SystemResetWarning,0831.5,5.00,000.00,029.1,024.9,000.0,037.2,030.1,29.8,0000.0,0012.23,0005.27,0004.41
2023-07-13 17:57:00,SystemResetWarning,0831.5,5.01,000.00,029.0,024.7,000.0,037.1,030.0,29.1,0000.0,0012.27,0005.24,0004.41
2023-07-13 17:58:00,SystemResetWarning,0831.5,5.00,000.00,028.9,025.0,000.0,037.2,029.9,27.8,0000.0,0012.70,0005.23,0004.40
2023-07-13 17:59:00,SystemResetWarning,0831.5,4.99,000.00,028.9,025.4,000.0,037.2,030.0,29.2,0000.0,0012.19,0005.18,0004.38
